Tracking 31027 objects as of 19-Jul-2025
HD Live streaming from Space Station
objects crossing your sky now

FENGYUN 1C DEB

Track FENGYUN 1C DEB now!
10-day predictions


NORAD ID: 29885
Int'l Code: 1999-025GF
Perigee: 769.9 km
Apogee: 939.5 km
Inclination: 98.3 °
Period: 101.9 minutes
Semi major axis: 7225 km
RCS: 0.04 m2 (small)
Launch date: May 10, 1999
Source: People's Republic of China (PRC)
Launch site: Taiyaun Space Center, China (TSC)

Note: This is SATELLITE DEBRIS
Your satellite tracking list
COSMOS 2502
Track 1 satellite(s)




NASA's NSSDC Master Catalog

Two Line Element Set (TLE):
1 29885U 99025GF  25199.31485178  .00000144  00000-0  92102-4 0  9997
2 29885  98.3350 144.1554 0117355 229.1294 285.8831 14.13451228953741
Source of the keplerian elements: AFSPC